Weather History for Russell, KS

Change the Weather History Date:

Thursday, April 4, 2013

  Actual Average Record
Temperature  
Mean Temperature 44 °F -  
Max Temperature 63 °F 58 °F 86 °F (1967)
Min Temperature 27 °F 34 °F 23 °F (1968)
Degree Days  
Heating Degree Days 20    
Moisture  
Dew Point 32 °F    
Average Humidity 66    
Maximum Humidity 96    
Minimum Humidity 32    
Precipitation  
Precipitation 0.00 in - - ()
Sea Level Pressure  
Sea Level Pressure 30.17 in    
Wind  
Wind Speed 6 mph (SSW)    
Max Wind Speed 13 mph    
Max Gust Speed -    
Visibility 9 miles    
Events      
Averages and records for this station are not official NWS values.
T = Trace of Precipitation, MM = Missing Value Source: NWS Daily Summary

Daily Weather History Graph

Daily Weather History Graph

Search for Another Location

Airport:

Trip Planner

Search our weather history database for the weather conditions in past years. The results will help you decide how hot, cold, wet, or windy it might be!

Date:

Astronomy

Apr. 04, 2013 Rise Set
Actual Time 7:14 AM CDT 8:02 PM CDT
Civil Twilight 6:47 AM CDT 8:29 PM CDT
Nautical Twilight 6:15 AM CDT 9:01 PM CDT
Astronomical Twilight 5:43 AM CDT 9:34 PM CDT
Moon 3:39 AM CDT (4/4) 2:24 PM CDT (4/4)
Length of Visible Light 13h 41m
Length of Day
12h 47m
Waning Crescent, 33% of the Moon is Illuminated
Apr 4
Waning Crescent
Apr 10
New
Apr 18
First Quarter
Apr 25
Full
May 2
Last Quarter

Hourly Weather History & Observations

Time (CDT) Temp. Windchill Dew Point Humidity Pressure Visibility Wind Dir Wind Speed Gust Speed Precip Events Conditions
12:53 AM 39.0 °F 35.7 °F 33.1 °F 79% 30.26 in 10.0 mi South 4.6 mph - N/A   Overcast
1:42 AM 37.4 °F 32.8 °F 32.0 °F 81% 30.21 in 10.0 mi SSW 5.8 mph - N/A   Overcast
1:53 AM 37.9 °F 34.4 °F 32.0 °F 79% 30.25 in 10.0 mi South 4.6 mph - N/A   Overcast
2:53 AM 37.0 °F 33.3 °F 33.1 °F 86% 30.23 in 10.0 mi SSW 4.6 mph - N/A   Overcast
3:53 AM 34.0 °F 28.0 °F 30.9 °F 89% 30.23 in 10.0 mi SSW 6.9 mph - N/A   Overcast
4:53 AM 32.0 °F 27.5 °F 28.9 °F 88% 30.22 in 8.0 mi SW 4.6 mph - N/A   Mostly Cloudy
5:53 AM 28.9 °F 22.8 °F 28.0 °F 96% 30.22 in 6.0 mi SW 5.8 mph - N/A   Clear
6:53 AM 27.0 °F 21.6 °F 26.1 °F 96% 30.22 in 5.0 mi South 4.6 mph - N/A   Clear
7:53 AM 28.9 °F 22.8 °F 27.0 °F 92% 30.23 in 7.0 mi SSW 5.8 mph - N/A   Clear
8:53 AM 35.1 °F 30.1 °F 30.9 °F 85% 30.22 in 10.0 mi SW 5.8 mph - N/A   Clear
9:53 AM 41.0 °F 35.2 °F 33.1 °F 73% 30.21 in 10.0 mi WSW 9.2 mph - N/A   Partly Cloudy
10:53 AM 44.1 °F 37.7 °F 33.1 °F 65% 30.21 in 10.0 mi SW 12.7 mph - N/A   Clear
11:53 AM 46.9 °F - 34.0 °F 61% 30.21 in 10.0 mi Variable 5.8 mph - N/A   Clear
12:53 PM 51.1 °F - 35.1 °F 54% 30.18 in 10.0 mi West 6.9 mph - N/A   Clear
1:53 PM 55.0 °F - 36.0 °F 49% 30.15 in 10.0 mi Variable 5.8 mph - N/A   Clear
2:53 PM 57.0 °F - 36.0 °F 45% 30.13 in 10.0 mi West 4.6 mph - N/A   Clear
3:53 PM 60.1 °F - 35.1 °F 39% 30.10 in 10.0 mi Variable 4.6 mph - N/A   Clear
4:53 PM 61.0 °F - 33.1 °F 35% 30.09 in 10.0 mi Variable 3.5 mph - N/A   Clear
5:53 PM 62.1 °F - 32.0 °F 32% 30.09 in 10.0 mi Variable 4.6 mph - N/A   Clear
6:53 PM 62.1 °F - 33.1 °F 34% 30.10 in 10.0 mi Calm Calm - N/A   Clear
7:53 PM 59.0 °F - 30.9 °F 35% 30.11 in 10.0 mi Calm Calm - N/A   Clear
8:53 PM 48.0 °F - 34.0 °F 58% 30.12 in 10.0 mi South 8.1 mph - N/A   Clear
9:53 PM 45.0 °F 40.1 °F 34.0 °F 65% 30.12 in 10.0 mi South 9.2 mph - N/A   Clear
10:53 PM 43.0 °F 38.2 °F 34.0 °F 71% 30.12 in 10.0 mi South 8.1 mph - N/A   Clear
11:53 PM 42.1 °F 37.1 °F 33.1 °F 70% 30.13 in 10.0 mi SSW 8.1 mph - N/A   Clear